{"data":{"norad_id":41745,"intl_designator":"2016-052B","name":"USA 271","alt_names":[],"object_type":"PAYLOAD","status":"ACTIVE","operator":null,"country":"US","launch_date":"2016-08-19","launch_site_code":"AFETR","launch_vehicle":null,"mission":null,"orbit_class":"UNKNOWN","rcs_meters":null,"size_class":null,"mass_kg":null,"dimensions":null,"purposes":["comms"],"wikipedia_slug":null,"has_3d_model":false,"image_url":null,"decayed_at":null,"tle_current":{"epoch":"2026-09-18T01:47:10.598208Z","epoch_age_seconds":235246,"freshness":"STALE","line1":"1 41745U 16052B   26261.07442822  .00000012  00000+0  00000+0 0  9992","line2":"2 41745   4.4031  76.0291 0002858 172.7394 168.8547  0.99061684 28840","mean_motion":0.99061684,"eccentricity":0.0002858,"inclination_deg":4.4031,"raan_deg":76.0291,"arg_perigee_deg":172.7394,"mean_anomaly_deg":168.8547,"bstar":0,"rev_number":2884,"period_min":1453.6397342084,"perigee_km":36117.13022229,"apogee_km":36141.427461185,"semimajor_km":42507.415841737,"source":"CELESTRAK","updated_at":"2026-09-20T09:00:35.247471Z"}}}